Weather History for Shirley, NY

Change the Weather History Date:

Friday, December 7, 2012

  Actual Average (KISP) Record (KISP)
Temperature  
Mean Temperature 36 °F 38 °F  
Max Temperature 48 °F 46 °F 77 °F (1998)
Min Temperature 23 °F 31 °F 8 °F (2002)
Degree Days  
Heating Degree Days 30 27  
Month to date heating degree days 180  
Since 1 July heating degree days 1196  
Cooling Degree Days 0 0  
Month to date cooling degree days 0  
Year to date cooling degree days 787  
Moisture  
Dew Point 36 °F    
Average Humidity 83    
Maximum Humidity 93    
Minimum Humidity 63    
Precipitation  
Precipitation 0.06 in 0.14 in 1.64 in (1996)
Month to date precipitation 0.98  
Year to date precipitation 43.16  
Snow  
Snow 0.00 in 0.20 in - ()
Month to date snowfall 0.7  
Since 1 July snowfall 1.2  
Snow Depth -    
Sea Level Pressure  
Sea Level Pressure 30.16 in    
Wind  
Wind Speed 1 mph (SSW)    
Max Wind Speed 9 mph    
Max Gust Speed -    
Visibility 10 miles    
Events Rain    
T = Trace of Precipitation, MM = Missing Value Source: NWS Daily Summary

Daily Weather History Graph

Daily Weather History Graph

Search for Another Location

Airport:

Trip Planner

Search our weather history database for the weather conditions in past years. The results will help you decide how hot, cold, wet, or windy it might be!

Date:

Astronomy

Dec. 07, 2012 Rise Set
Actual Time 7:02 AM EST 4:23 PM EST
Civil Twilight 6:31 AM EST 4:54 PM EST
Nautical Twilight 5:57 AM EST 5:28 PM EST
Astronomical Twilight 5:24 AM EST 6:01 PM EST
Moon 12:16 AM EST (12/7) 12:21 PM EST (12/7)
Length of Visible Light 10h 22m
Length of Day
9h 20m
Last Quarter, 39% of the Moon is Illuminated
Dec 7
Last Quarter
Dec 13
New
Dec 20
First Quarter
Dec 28
Full
Jan 4
Last Quarter

Hourly Weather History & Observations

Time (EST) Temp. Windchill Dew Point Humidity Pressure Visibility Wind Dir Wind Speed Gust Speed Precip Events Conditions
12:56 AM 23.0 °F - 19.0 °F 85% 30.29 in 10.0 mi Calm Calm - N/A   Partly Cloudy
1:09 AM 24.8 °F - 19.4 °F 80% 30.29 in 9.0 mi Calm Calm - N/A   Mostly Cloudy
1:56 AM 27.0 °F - 23.0 °F 85% 30.29 in 10.0 mi Calm Calm - N/A   Overcast
2:56 AM 28.9 °F - 25.0 °F 85% 30.28 in 10.0 mi Calm Calm - N/A   Overcast
3:56 AM 30.9 °F - 24.1 °F 76% 30.26 in 10.0 mi Calm Calm - N/A   Overcast
4:56 AM 32.0 °F - 25.0 °F 75% 30.24 in 10.0 mi Calm Calm - N/A   Overcast
5:56 AM 33.1 °F 30.0 °F 27.0 °F 78% 30.24 in 10.0 mi WNW 3.5 mph - N/A   Overcast
6:56 AM 33.1 °F - 27.0 °F 78% 30.23 in 10.0 mi Calm Calm - N/A   Overcast
7:56 AM 35.1 °F - 28.0 °F 76% 30.24 in 10.0 mi Calm Calm - N/A   Overcast
8:31 AM 37.4 °F - 30.2 °F 75% 30.24 in 10.0 mi Calm Calm - N/A   Scattered Clouds
8:56 AM 39.0 °F - 30.0 °F 70% 30.24 in 10.0 mi Calm Calm - N/A   Scattered Clouds
9:56 AM 43.0 °F - 32.0 °F 65% 30.23 in 10.0 mi Calm Calm - N/A   Overcast
10:56 AM 46.0 °F 44.8 °F 34.0 °F 63% 30.19 in 10.0 mi SSE 3.5 mph - N/A   Overcast
11:56 AM 48.0 °F - 37.0 °F 66% 30.17 in 10.0 mi South 9.2 mph - 0.00 in Rain Light Rain
12:56 PM 48.0 °F - 39.0 °F 71% 30.15 in 10.0 mi South 4.6 mph - 0.00 in Rain Light Rain
1:56 PM 46.9 °F - 41.0 °F 80% 30.13 in 9.0 mi Calm Calm - 0.01 in Rain Light Rain
2:56 PM 46.9 °F - 42.1 °F 83% 30.12 in 10.0 mi SSW 4.6 mph - 0.02 in Rain Light Rain
3:31 PM 46.4 °F 44.3 °F 42.8 °F 87% 30.11 in 10.0 mi SSW 4.6 mph - 0.01 in Rain Light Rain
3:56 PM 46.0 °F 43.9 °F 43.0 °F 89% 30.11 in 10.0 mi SSW 4.6 mph - 0.01 in   Overcast
4:05 PM 46.4 °F 44.3 °F 42.8 °F 87% 30.11 in 10.0 mi SSW 4.6 mph - N/A   Overcast
4:56 PM 46.0 °F - 43.0 °F 89% 30.10 in 10.0 mi Calm Calm - N/A   Overcast
5:56 PM 46.0 °F 43.9 °F 43.0 °F 89% 30.10 in 10.0 mi SSW 4.6 mph - N/A   Overcast
6:41 PM 46.4 °F 45.2 °F 42.8 °F 87% 30.09 in 10.0 mi South 3.5 mph - 0.01 in   Overcast
6:56 PM 46.0 °F 44.8 °F 43.0 °F 89% 30.09 in 10.0 mi South 3.5 mph - 0.01 in   Overcast
7:56 PM 46.9 °F - 43.0 °F 86% 30.09 in 9.0 mi SW 5.8 mph - 0.01 in   Overcast
8:53 PM 46.4 °F 45.2 °F 44.6 °F 93% 30.08 in 10.0 mi SW 3.5 mph - 0.00 in   Overcast
8:56 PM 46.9 °F - 44.1 °F 90% 30.09 in 10.0 mi SW 3.5 mph - 0.00 in   Overcast
9:27 PM 46.4 °F 45.2 °F 44.6 °F 93% 30.08 in 10.0 mi SW 3.5 mph - N/A   Overcast
9:56 PM 46.9 °F - 45.0 °F 93% 30.07 in 10.0 mi Calm Calm - N/A   Overcast
10:04 PM 46.4 °F - 44.6 °F 93% 30.08 in 10.0 mi Calm Calm - N/A   Overcast
10:56 PM 46.9 °F - 45.0 °F 93% 30.06 in 7.0 mi Calm Calm - 0.00 in   Overcast
11:56 PM 46.9 °F - 45.0 °F 93% 30.04 in 3.0 mi Calm Calm - 0.00 in   Overcast